Wind_Speed
37 37 38 39 40 41 41 38 36 35 34 33 32 31 31 29 28 27 25 23 22 21 19 18 18 17 16 15 14 14 14 13 13 12 12 11 11 11 10 10 10 9 10 9 10 10 10 10 9
37 37 38 39 41 42 40 38 37 37 35 34 33 33 32 30 29 28 26 24 23 22 21 20 19 18 17 16 15 15 15 15 14 14 13 13 12 12 12 11 11 11 10 10 10 10 11 11 11
37 38 39 40 42 41 39 38 37 37 36 35 35 34 33 31 30 30 28 26 25 23 23 22 21 20 19 18 17 17 16 16 15 15 14 14 14 13 12 12 12 12 12 12 12 12 12 12 12
37 38 40 42 42 40 39 39 38 37 37 37 36 35 34 33 32 31 30 28 26 25 24 23 22 21 21 20 19 19 18 18 16 15 15 15 15 14 14 14 14 14 13 13 14 14 14 14 13
35 37 39 42 41 40 40 39 39 38 38 37 37 37 35 34 33 32 31 29 27 26 25 24 23 22 22 21 21 20 19 19 18 16 16 16 16 15 15 15 15 15 15 15 15 15 15 15 15
32 34 37 39 40 40 39 39 39 38 39 39 38 37 36 35 34 33 32 31 29 28 26 26 25 23 23 23 22 21 21 20 19 17 17 17 17 17 16 16 16 16 16 16 16 16 16 17 17
29 32 34 35 37 39 39 38 39 37 37 38 39 38 37 36 35 33 32 32 30 30 28 27 26 25 24 23 23 22 21 21 20 19 19 19 18 18 17 17 17 17 17 17 17 17 17 18 18
26 29 31 32 35 37 36 36 37 38 38 37 38 38 37 37 35 34 33 32 31 30 30 29 28 26 26 25 24 23 22 21 21 20 20 20 19 19 19 18 18 18 17 17 18 18 18 19 19
23 26 28 29 32 35 35 36 36 37 37 36 37 37 37 37 36 35 34 33 32 31 30 29 28 27 27 26 24 24 23 23 23 22 22 21 21 20 20 19 19 19 19 19 19 19 20 20 20
21 24 24 26 29 32 35 35 33 35 37 37 37 37 37 37 36 35 34 33 33 32 31 30 30 28 27 27 25 25 25 24 24 24 23 23 22 21 20 20 20 20 20 20 21 21 21 21 21
17 20 21 23 26 30 34 33 32 33 37 36 36 37 38 38 37 35 34 34 34 34 32 30 30 30 28 27 27 27 26 25 25 25 25 24 24 22 21 21 22 22 22 22 22 22 22 23 23
14 16 19 20 23 28 31 32 31 32 33 35 35 35 37 38 38 36 35 34 34 34 32 30 31 30 29 28 28 28 27 27 26 26 26 25 24 24 23 22 23 23 23 23 23 23 23 24 24
12 14 17 19 21 24 27 29 29 30 32 33 33 34 36 37 37 36 35 35 34 33 32 31 31 31 30 29 28 28 29 28 28 28 27 26 25 25 24 24 23 23 23 24 23 24 24 24 24
9 12 15 18 19 21 24 26 26 26 29 30 32 32 34 36 35 35 35 34 33 33 32 32 31 31 30 30 29 28 28 28 28 29 29 28 27 27 26 25 25 24 24 25 25 25 25 25 25
7 9 12 15 18 19 22 24 25 24 26 28 31 32 33 34 34 34 33 32 32 33 33 32 32 31 30 29 30 29 29 28 28 28 28 28 28 28 26 26 26 26 26 26 26 26 26 26 26
7 8 10 12 15 18 20 23 25 24 25 27 30 31 32 32 33 32 32 32 31 32 33 33 33 32 30 29 29 29 29 29 29 28 28 28 28 28 28 27 26 26 26 26 27 27 27 27 28
6 6 8 11 13 16 19 21 24 23 25 27 28 29 30 31 32 32 32 32 32 31 32 33 33 33 32 30 30 30 29 29 28 28 28 29 29 29 29 28 27 28 28 28 27 27 28 29 30
6 6 7 9 11 14 17 19 21 22 24 26 27 27 27 29 30 31 31 31 31 30 31 32 32 31 31 31 31 31 30 30 29 28 28 29 30 30 30 29 29 29 29 29 29 30 30 30 31
7 6 7 8 9 11 14 17 19 20 22 24 26 24 25 26 28 29 30 31 30 30 30 32 32 31 30 31 31 31 30 29 29 28 29 30 30 30 30 30 29 30 31 30 31 32 32 32 32
6 6 6 7 7 9 11 14 18 19 20 23 25 23 23 24 25 28 29 29 28 29 30 31 32 31 30 30 30 30 32 31 31 30 31 31 30 31 32 31 31 31 32 32 32 33 33 33 33
5 5 6 7 7 8 10 11 14 19 20 22 24 24 23 24 25 26 27 28 29 28 28 29 31 31 31 30 30 30 31 32 32 30 30 31 32 32 32 32 32 33 33 34 33 33 33 33 33
5 6 7 7 7 8 11 11 11 16 19 20 21 23 24 25 25 25 26 27 27 28 28 29 29 30 31 31 30 31 31 31 32 30 30 32 33 33 34 34 34 35 35 35 35 34 34 34 34
7 7 7 8 8 9 11 12 11 13 17 19 19 21 23 23 23 24 25 26 27 27 28 28 29 30 31 31 32 32 33 33 32 32 33 34 35 35 35 35 35 36 37 37 36 36 35 35 36
8 8 8 9 9 9 11 13 14 14 16 19 20 20 22 23 24 24 25 25 27 28 28 28 29 30 31 32 33 33 35 34 33 33 34 35 35 35 36 36 37 37 38 38 37 36 36 36 37
9 10 10 10 11 11 11 13 14 15 16 18 19 20 21 23 23 24 25 26 27 29 30 30 31 31 32 33 34 35 36 34 34 34 34 35 35 36 37 37 37 37 38 38 38 37 38 38 38
11 11 11 12 13 13 13 14 15 15 16 17 18 19 20 23 25 26 26 27 29 30 31 31 32 32 32 33 35 36 36 36 36 36 36 36 36 36 37 38 37 37 38 39 39 39 39 39 39
12 12 13 13 14 14 14 14 15 15 16 18 19 20 21 22 24 25 27 28 29 31 32 32 32 33 33 34 35 36 37 37 38 38 38 38 38 39 40 40 39 39 38 39 40 40 40 40 40
13 14 15 15 15 15 15 15 15 16 18 19 20 22 23 23 24 24 26 28 30 31 32 32 32 32 33 35 36 37 37 38 38 39 39 40 40 41 41 41 41 40 40 40 40 41 41 41 42
15 15 16 16 17 16 17 16 15 17 17 18 20 21 23 24 24 24 25 27 29 30 31 32 32 32 33 35 36 37 38 39 39 39 40 40 40 41 41 41 41 41 42 42 41 42 42 43 43
16 16 16 17 17 18 18 17 16 18 18 19 20 21 23 24 25 25 26 28 29 30 32 32 33 33 34 35 37 38 39 40 40 41 41 40 41 41 41 42 42 43 43 43 43 44 44 45 45
Wind_Direction
250 248 245 243 241 240 241 240 240 238 236 236 236 236 234 233 233 233 233 234 234 234 234 236 237 239 242 243 244 244 243 245 245 245 247 247 247 247 249 251 253 254 256 259 263 267 272 275 277
250 248 245 242 240 239 239 239 238 237 236 235 234 234 234 234 233 233 232 233 233 233 234 236 237 239 242 245 245 245 244 245 246 246 248 248 249 250 252 254 255 257 258 262 266 270 273 275 277
250 248 244 241 239 239 239 238 237 236 236 234 232 233 232 233 232 232 231 233 233 233 234 236 238 241 244 247 247 246 245 245 245 245 247 248 248 250 253 256 257 259 261 265 268 271 274 276 277
250 247 243 240 238 238 238 237 236 236 235 234 233 232 232 232 232 231 231 232 232 232 233 236 239 242 246 248 248 246 246 245 243 244 246 248 249 251 254 257 258 260 262 265 269 272 274 275 276
250 246 243 241 238 237 236 236 235 236 234 234 234 232 232 231 231 231 231 232 232 232 233 236 240 242 245 248 248 246 245 244 243 243 246 248 250 253 255 258 259 260 263 267 270 272 272 273 275
251 248 245 241 237 235 235 234 234 234 234 234 233 233 232 231 229 230 232 233 233 233 234 236 239 242 246 247 248 246 245 244 244 244 246 248 251 254 256 258 260 262 265 268 271 271 272 274 276
252 249 246 242 237 234 233 234 233 232 232 232 233 233 231 230 228 229 231 233 233 234 235 236 238 241 244 247 248 247 246 245 244 244 246 249 252 254 257 260 263 265 267 268 271 270 272 275 277
254 250 246 242 238 234 232 232 232 231 231 231 232 232 230 229 227 228 230 232 232 234 235 236 238 240 244 246 247 247 245 244 244 245 247 249 252 254 256 260 264 267 269 270 271 270 273 275 277
256 251 246 242 238 234 232 230 229 230 229 230 231 230 229 227 227 228 230 231 231 233 235 236 238 241 242 244 244 246 246 245 244 245 248 249 250 253 256 260 264 268 269 270 272 272 274 276 277
258 252 248 243 238 234 231 230 226 227 228 230 230 228 227 226 225 227 228 229 230 233 235 237 238 241 242 243 243 244 246 246 246 246 248 249 250 252 256 260 264 267 269 270 272 274 275 276 277
261 253 247 242 235 232 230 227 226 226 228 230 229 228 226 226 226 227 227 228 230 233 235 237 240 242 243 244 244 244 247 248 247 248 249 250 251 253 256 261 264 266 270 271 273 275 276 278 278
260 251 243 238 233 232 230 227 226 227 227 226 227 226 224 225 226 227 228 228 230 232 236 238 239 242 243 244 245 246 247 248 248 248 249 250 252 254 257 260 264 267 271 271 272 275 277 279 280
260 248 241 237 234 231 229 226 226 228 228 226 227 227 225 222 225 226 227 227 229 232 235 236 238 240 243 245 246 246 247 247 248 249 251 252 253 255 258 261 265 267 270 272 273 274 277 279 279
265 251 243 238 235 232 227 225 225 225 227 226 224 224 223 222 224 226 227 227 229 231 234 235 238 240 242 245 246 246 247 248 249 250 251 253 254 256 259 261 266 268 270 272 272 274 276 278 279
273 259 248 240 236 231 223 222 224 222 223 221 221 222 221 222 224 225 226 228 231 233 234 236 239 241 244 246 247 248 248 248 248 250 251 253 255 257 260 263 266 269 272 273 274 276 278 278 278
284 268 255 245 238 230 226 225 225 224 222 217 218 221 220 222 225 226 228 230 233 233 235 238 241 242 244 246 248 249 251 249 249 249 252 253 256 257 260 264 267 269 272 274 275 276 277 278 279
293 268 257 250 239 235 232 229 225 229 224 219 219 221 223 224 226 227 229 231 233 235 237 239 241 243 245 248 252 250 249 250 249 250 252 255 257 259 261 263 266 269 271 273 274 275 277 278 279
311 292 265 251 239 239 235 231 228 228 224 221 221 223 225 225 227 228 231 233 235 237 238 239 241 245 247 250 251 250 251 252 254 253 253 256 257 260 262 264 265 269 271 273 274 274 275 277 279
312 293 264 249 244 240 233 231 229 224 225 224 224 228 228 223 224 227 231 234 237 239 243 242 242 247 250 251 253 253 254 255 255 254 255 257 258 261 264 265 266 269 272 274 275 275 276 277 279
311 286 269 264 261 242 230 231 229 227 229 229 229 232 229 227 229 231 234 236 239 242 244 243 244 248 251 253 254 256 256 258 259 257 257 259 259 261 264 267 267 268 271 274 275 275 276 277 279
323 299 287 276 266 248 236 230 231 230 232 231 232 234 231 233 235 234 236 238 242 243 245 245 246 248 251 252 254 254 255 258 256 257 260 260 261 263 267 270 270 270 272 275 276 277 277 278 279
329 309 298 285 274 263 251 246 240 232 231 234 235 236 236 237 238 236 239 241 243 246 248 247 248 251 253 254 255 255 257 258 257 259 263 263 263 264 268 270 272 272 273 275 276 276 277 278 279
330 320 305 290 282 273 258 253 244 239 236 238 241 241 241 241 242 241 241 243 245 248 249 249 251 252 254 255 256 257 258 259 259 262 266 263 264 266 268 271 272 273 274 276 276 277 277 277 278
321 315 308 295 285 277 270 264 254 250 241 242 244 246 247 247 247 245 245 247 249 250 252 253 254 253 255 257 257 257 258 261 261 264 266 266 267 267 269 271 273 274 275 275 276 278 278 279 280
312 309 303 301 295 285 277 271 263 260 252 249 249 250 248 249 251 248 247 248 250 252 253 254 256 258 257 258 259 259 261 262 263 265 267 268 270 271 272 272 272 273 274 274 275 278 279 280 280
309 306 304 302 298 293 284 276 269 265 258 254 254 253 253 253 253 251 250 251 251 252 253 255 257 259 260 260 261 261 262 263 264 265 268 270 270 272 273 274 274 275 274 274 276 278 280 281 281
306 305 303 300 296 293 291 283 272 268 265 263 261 258 258 259 257 253 253 254 254 255 255 257 259 260 261 262 263 263 263 264 265 266 268 270 271 272 275 276 276 276 276 277 278 279 281 282 282
306 302 300 300 297 293 290 287 280 274 270 267 264 263 262 262 259 256 255 256 257 257 259 260 262 263 263 264 264 264 266 267 268 269 270 271 272 274 276 277 278 277 277 279 279 280 280 282 282
306 302 300 298 295 294 293 289 286 281 276 271 269 267 268 266 263 261 260 260 260 260 262 263 265 266 267 267 267 268 269 270 271 272 274 274 275 276 277 277 277 277 278 279 279 280 281 282 282
305 304 301 298 296 295 295 292 288 283 280 277 274 272 271 269 267 265 265 264 264 265 266 267 268 268 269 270 270 271 272 272 273 274 276 277 277 276 277 278 277 277 278 279 280 281 282 283 283
Height
5791 5792 5794 5796 5798 5799 5803 5809 5814 5818 5821 5823 5827 5829 5832 5834 5837 5841 5842 5844 5846 5849 5851 5852 5854 5855 5856 5857 5857 5858 5859 5859 5860 5861 5862 5862 5863 5863 5864 5864 5865 5865 5865 5866 5866 5866 5866 5866 5866
5781 5783 5785 5786 5788 5790 5796 5802 5806 5810 5814 5817 5820 5823 5826 5829 5831 5835 5838 5840 5842 5845 5847 5849 5850 5852 5853 5854 5855 5855 5856 5857 5858 5858 5859 5860 5861 5861 5862 5862 5863 5863 5863 5864 5864 5864 5864 5864 5864
5771 5773 5775 5776 5778 5784 5791 5795 5799 5803 5806 5810 5813 5817 5820 5823 5826 5829 5833 5835 5838 5841 5844 5845 5847 5849 5850 5851 5852 5853 5853 5854 5855 5856 5857 5858 5858 5859 5860 5860 5861 5861 5861 5861 5862 5862 5862 5862 5862
5762 5763 5765 5768 5771 5779 5783 5788 5792 5796 5799 5803 5807 5811 5814 5818 5821 5825 5828 5831 5834 5837 5839 5842 5843 5845 5846 5848 5849 5849 5850 5851 5852 5853 5854 5855 5856 5856 5857 5858 5858 5858 5859 5859 5859 5859 5859 5859 5859
5752 5754 5755 5758 5765 5771 5775 5780 5784 5788 5791 5795 5800 5804 5809 5812 5816 5819 5823 5826 5829 5832 5835 5837 5839 5841 5842 5844 5845 5846 5847 5847 5848 5850 5851 5852 5853 5853 5854 5855 5855 5855 5856 5856 5856 5856 5856 5856 5856
5743 5745 5747 5751 5758 5763 5767 5772 5776 5780 5784 5788 5793 5798 5802 5806 5810 5814 5817 5821 5824 5827 5830 5833 5835 5836 5838 5839 5841 5842 5843 5844 5845 5846 5847 5849 5849 5850 5851 5851 5852 5852 5852 5853 5853 5853 5853 5853 5853
5736 5737 5739 5744 5749 5754 5760 5764 5768 5773 5777 5781 5785 5790 5795 5799 5804 5808 5811 5815 5819 5822 5825 5828 5830 5832 5834 5835 5836 5837 5839 5840 5841 5842 5844 5845 5846 5847 5847 5848 5848 5849 5849 5849 5849 5849 5849 5849 5849
5728 5730 5732 5737 5741 5746 5752 5756 5761 5765 5770 5774 5778 5783 5788 5792 5797 5801 5805 5809 5813 5816 5819 5823 5825 5827 5829 5830 5832 5833 5834 5836 5837 5838 5840 5841 5842 5843 5844 5844 5845 5845 5845 5845 5845 5845 5845 5845 5845
5722 5724 5726 5731 5735 5740 5744 5747 5752 5757 5761 5766 5770 5776 5781 5786 5791 5795 5799 5803 5807 5810 5813 5817 5820 5822 5824 5825 5827 5829 5830 5831 5833 5834 5835 5836 5838 5839 5840 5840 5841 5841 5841 5841 5841 5841 5841 5841 5840
5716 5717 5721 5725 5728 5732 5735 5740 5745 5750 5755 5758 5763 5769 5775 5780 5785 5789 5793 5797 5801 5805 5808 5811 5814 5816 5818 5820 5822 5824 5825 5827 5828 5829 5831 5832 5833 5834 5835 5836 5836 5837 5837 5837 5837 5837 5836 5836 5836
5711 5713 5716 5718 5722 5724 5728 5733 5738 5743 5748 5752 5757 5763 5768 5773 5778 5782 5787 5790 5795 5798 5801 5805 5808 5810 5812 5815 5817 5819 5820 5822 5823 5824 5826 5827 5829 5830 5831 5832 5832 5832 5832 5832 5832 5832 5832 5831 5831
5708 5709 5711 5713 5716 5719 5723 5727 5732 5737 5742 5746 5751 5756 5762 5767 5772 5776 5780 5785 5789 5793 5796 5799 5803 5805 5807 5809 5811 5813 5815 5816 5818 5819 5820 5822 5823 5825 5826 5827 5827 5827 5827 5827 5827 5827 5827 5827 5826
5705 5706 5707 5709 5711 5714 5719 5723 5728 5731 5736 5741 5745 5750 5755 5761 5766 5770 5774 5779 5783 5787 5791 5794 5797 5800 5802 5804 5806 5807 5809 5811 5812 5814 5815 5817 5818 5820 5821 5822 5822 5822 5822 5822 5821 5821 5822 5822 5821
5703 5703 5704 5706 5708 5711 5715 5719 5723 5728 5731 5735 5740 5745 5750 5755 5760 5765 5769 5773 5777 5781 5785 5789 5791 5794 5796 5798 5800 5801 5803 5805 5807 5808 5809 5811 5813 5814 5815 5816 5816 5816 5816 5816 5816 5816 5816 5816 5816
5702 5702 5703 5704 5706 5708 5712 5716 5720 5725 5728 5731 5737 5741 5745 5749 5754 5759 5764 5767 5772 5775 5779 5783 5785 5788 5790 5792 5794 5796 5797 5799 5801 5802 5804 5805 5807 5808 5810 5810 5811 5811 5811 5811 5811 5811 5810 5810 5810
5701 5701 5702 5703 5704 5706 5711 5714 5718 5721 5724 5727 5732 5737 5741 5745 5750 5754 5758 5762 5765 5769 5773 5777 5779 5782 5784 5786 5788 5790 5791 5793 5795 5797 5798 5800 5801 5802 5804 5805 5805 5805 5805 5805 5805 5805 5805 5804 5804
5701 5701 5701 5702 5703 5705 5707 5710 5714 5717 5720 5724 5729 5733 5737 5741 5745 5749 5753 5757 5760 5764 5767 5771 5774 5776 5778 5780 5782 5784 5785 5787 5789 5791 5792 5794 5795 5796 5797 5798 5799 5799 5799 5799 5799 5799 5798 5798 5797
5702 5701 5701 5702 5703 5705 5706 5708 5712 5713 5717 5721 5725 5730 5734 5737 5741 5745 5749 5753 5756 5759 5762 5765 5767 5771 5773 5775 5777 5778 5780 5781 5783 5784 5786 5787 5789 5790 5791 5791 5792 5792 5792 5792 5792 5792 5791 5791 5790
5702 5701 5701 5702 5702 5703 5705 5706 5709 5711 5715 5719 5723 5727 5730 5734 5738 5741 5745 5748 5751 5754 5757 5760 5762 5765 5767 5769 5771 5773 5774 5775 5777 5779 5780 5781 5782 5783 5784 5785 5785 5786 5786 5785 5785 5784 5784 5784 5783
5702 5702 5701 5702 5702 5702 5703 5705 5707 5710 5713 5717 5720 5724 5727 5731 5734 5737 5741 5744 5747 5750 5753 5755 5757 5759 5761 5763 5765 5767 5769 5770 5772 5773 5774 5774 5775 5776 5777 5778 5778 5778 5778 5778 5777 5777 5776 5776 5775
5702 5702 5702 5702 5702 5702 5703 5704 5706 5709 5711 5715 5718 5721 5724 5728 5731 5734 5737 5740 5742 5745 5747 5750 5752 5754 5756 5758 5759 5761 5763 5764 5765 5767 5767 5768 5769 5769 5770 5770 5771 5770 5771 5770 5770 5769 5769 5768 5767
5703 5702 5701 5701 5701 5701 5703 5703 5705 5706 5709 5712 5716 5718 5722 5724 5728 5730 5733 5736 5738 5740 5742 5744 5746 5748 5750 5751 5753 5755 5756 5758 5759 5760 5760 5761 5762 5762 5763 5763 5763 5763 5763 5762 5762 5761 5761 5760 5760
5703 5702 5701 5701 5700 5701 5702 5702 5704 5705 5707 5710 5713 5716 5719 5721 5724 5726 5729 5731 5733 5735 5737 5739 5740 5742 5743 5745 5747 5748 5749 5751 5752 5753 5753 5754 5754 5754 5754 5755 5755 5754 5754 5754 5754 5753 5753 5752 5751
5702 5702 5701 5700 5700 5700 5700 5701 5702 5703 5706 5708 5711 5713 5716 5718 5720 5722 5724 5726 5728 5730 5731 5733 5734 5735 5736 5738 5740 5741 5742 5744 5745 5745 5746 5746 5746 5746 5746 5747 5746 5746 5746 5746 5745 5745 5744 5743 5743
5702 5701 5700 5698 5698 5698 5698 5698 5701 5701 5703 5705 5708 5710 5712 5714 5715 5717 5719 5721 5723 5724 5726 5727 5728 5729 5730 5731 5732 5733 5735 5736 5737 5738 5738 5738 5738 5738 5738 5738 5738 5737 5737 5736 5736 5735 5735 5734 5733
5700 5700 5699 5698 5697 5697 5697 5697 5699 5699 5700 5701 5703 5705 5707 5709 5710 5712 5713 5715 5717 5718 5719 5720 5721 5722 5723 5724 5725 5726 5727 5728 5729 5729 5729 5729 5729 5729 5729 5729 5729 5728 5727 5727 5726 5726 5725 5724 5723
5699 5698 5698 5697 5695 5695 5695 5696 5696 5696 5697 5698 5699 5700 5702 5703 5705 5706 5707 5709 5710 5712 5713 5713 5714 5715 5716 5717 5718 5719 5719 5720 5721 5721 5720 5720 5720 5720 5719 5719 5719 5718 5718 5717 5717 5716 5715 5714 5713
5698 5696 5696 5694 5692 5692 5693 5693 5693 5693 5694 5694 5695 5696 5697 5698 5699 5700 5701 5702 5703 5705 5705 5706 5707 5707 5708 5709 5710 5711 5711 5711 5711 5711 5711 5711 5710 5710 5709 5709 5708 5708 5707 5707 5706 5705 5704 5703 5702
5696 5694 5692 5691 5690 5690 5689 5692 5690 5690 5690 5690 5691 5691 5692 5692 5693 5694 5695 5696 5697 5698 5698 5699 5699 5700 5700 5701 5701 5701 5702 5701 5701 5701 5701 5700 5700 5699 5699 5698 5698 5697 5697 5696 5695 5694 5693 5692 5691
5692 5691 5690 5689 5688 5686 5685 5690 5686 5686 5685 5685 5685 5685 5686 5686 5687 5688 5689 5689 5690 5690 5691 5691 5691 5692 5692 5692 5692 5692 5692 5692 5691 5691 5690 5690 5689 5689 5688 5687 5687 5686 5685 5684 5683 5682 5681 5680 5679